INTELSAT 39 (IS-39)

Last updated on Thu Dec 18 2025 00:02:51 GMT+0000 (Coordinated Universal Time)

1 44476U 19049B 25351.63005565 .00000000 00000+0 00000+0 0 9992 2 44476 0.0271 350.8796 0001271 141.7504 242.6230 1.00270101 23307
UTC large
Height (km)
Speed (km/s)
/
Latitude / Longitude
Inclination (degrees)
Orbital Period (minutes)
Azimuth
Elevation
Range (km)
Doppler Factor

Next 0 passes for location: London (51.5072 / 0.1276)

Sorry there are no passes over London.